sat.trackr.live / text

‹ back to catalog

STARLINK-34032

NORAD 63853 · 2025-093T

PAYLOAD ACTIVE UNKNOWN

§ Identity

Operator
Country
US
Launch date
2025-05-07
Launch site
AFETR
Launch vehicle
Mass (kg)
RCS (m²)

Purposes: comms

External: N2YO · Heavens-Above · Gunter

§ Orbital elements

Epoch: 2026-05-24T23:49:53.546304Z

Period
94.27 min
Inclination
43.0037°
Eccentricity
0.0001467
Mean motion
15.27601071 rev/d
Perigee alt
482.0 km
Apogee alt
484.0 km
Semi-major
6,861.1 km
B*
6.7401e-4
RAAN
6.8003°
Arg perigee
274.6367°
Mean anomaly
85.4317°
Rev number
5,964

§ Raw data

STARLINK-340321 63853U 25093T   26144.99298086  .00018343  00000+0  67401-3 0  99912 63853  43.0037   6.8003 0001467 274.6367  85.4317 15.27601071 59646

JSON: /api/v1/satellites/63853 · /tle

For live sub-satellite position, see the globe view (requires WebGL).

§ Visibility from observer

Set your observer location to see the next 7 days of passes ≥ 10°. The values pass through the URL so the page stays shareable.

No JS? Fill the form by hand. The geolocation button needs JavaScript.